Time,TemperatureF,DewpointF,PressureIn,WindDirection,WindDirectionDegrees,WindSpeedMPH,WindSpeedGustMPH,Humidity,HourlyPrecipIn,Conditions,Clouds,dailyrainin,SoftwareType,DateUTC
2013-04-16 00:02:00,45.0,41.0,29.97,NNE,30,14.0,28.0,87,-99.99,,,-99.99,,2013-04-16 05:02:00,
2013-04-16 00:12:00,45.0,41.0,29.97,NNE,30,14.0,28.0,87,-99.99,,,-99.99,,2013-04-16 05:12:00,
2013-04-16 00:22:00,43.0,39.0,30.03,NNW,330,12.0,-999.0,86,-99.99,,,-99.99,,2013-04-16 05:22:00,
2013-04-16 00:32:00,41.0,41.0,30.00,North,360,16.0,22.0,100,-99.99,,,-99.99,,2013-04-16 05:32:00,
2013-04-16 00:42:00,41.0,41.0,30.03,NNE,20,8.0,-999.0,100,-99.99,,,-99.99,,2013-04-16 05:42:00,
2013-04-16 00:52:00,41.0,41.0,30.03,NNE,20,8.0,-999.0,100,-99.99,,,-99.99,,2013-04-16 05:52:00,
2013-04-16 01:02:00,41.0,41.0,30.03,NNE,20,8.0,-999.0,100,-99.99,,,-99.99,,2013-04-16 06:02:00,
2013-04-16 01:12:00,41.0,41.0,30.03,NNE,20,8.0,-999.0,100,-99.99,,,-99.99,,2013-04-16 06:12:00,
2013-04-16 01:22:00,41.0,41.0,30.01,NNE,30,12.0,-999.0,100,-99.99,,,-99.99,,2013-04-16 06:22:00,
2013-04-16 01:32:00,39.0,39.0,30.02,NNE,30,6.0,-999.0,100,-99.99,,,-99.99,,2013-04-16 06:32:00,
2013-04-16 01:42:00,39.0,39.0,30.02,NNE,30,6.0,-999.0,100,-99.99,,,-99.99,,2013-04-16 06:42:00,
2013-04-16 01:52:00,39.0,39.0,30.02,NNE,30,6.0,-999.0,100,-99.99,,,-99.99,,2013-04-16 06:52:00,
2013-04-16 02:02:00,39.0,39.0,30.02,NNE,30,6.0,-999.0,100,-99.99,,,-99.99,,2013-04-16 07:02:00,
2013-04-16 02:12:00,39.0,39.0,30.02,NNE,30,6.0,-999.0,100,-99.99,,,-99.99,,2013-04-16 07:12:00,
2013-04-16 02:22:00,41.0,41.0,30.04,NNW,340,14.0,17.0,100,-99.99,,,-99.99,,2013-04-16 07:22:00,
2013-04-16 02:32:00,39.0,39.0,30.03,North,360,13.0,-999.0,100,-99.99,,,-99.99,,2013-04-16 07:32:00,
2013-04-16 02:42:00,39.0,39.0,30.03,North,360,13.0,-999.0,100,-99.99,,,-99.99,,2013-04-16 07:42:00,
2013-04-16 02:53:00,39.0,39.0,30.04,North,10,12.0,-999.0,100,-99.99,,,-99.99,,2013-04-16 07:53:00,
2013-04-16 03:02:00,39.0,39.0,30.04,North,10,12.0,-999.0,100,-99.99,,,-99.99,,2013-04-16 08:02:00,
2013-04-16 03:12:00,39.0,39.0,30.04,North,10,12.0,-999.0,100,-99.99,,,-99.99,,2013-04-16 08:12:00,
2013-04-16 03:22:00,39.0,39.0,30.04,North,10,12.0,-999.0,100,-99.99,,,-99.99,,2013-04-16 08:22:00,
2013-04-16 03:32:00,39.0,39.0,30.04,North,10,9.0,-999.0,100,-99.99,,,-99.99,,2013-04-16 08:32:00,
2013-04-16 03:42:00,39.0,39.0,30.04,North,10,9.0,-999.0,100,-99.99,,,-99.99,,2013-04-16 08:42:00,
2013-04-16 03:52:00,41.0,41.0,30.05,NNE,20,7.0,-999.0,100,-99.99,,,-99.99,,2013-04-16 08:52:00,
2013-04-16 04:02:00,41.0,41.0,30.05,NNE,20,7.0,-999.0,100,-99.99,,,-99.99,,2013-04-16 09:02:00,
2013-04-16 04:12:00,41.0,41.0,30.05,NNE,20,7.0,-999.0,100,-99.99,,,-99.99,,2013-04-16 09:12:00,
2013-04-16 04:22:00,41.0,41.0,30.04,NNE,20,13.0,-999.0,100,-99.99,,,-99.99,,2013-04-16 09:22:00,
2013-04-16 04:33:00,41.0,41.0,30.05,NNE,20,12.0,-999.0,100,-99.99,,,-99.99,,2013-04-16 09:33:00,
2013-04-16 04:43:00,41.0,41.0,30.06,North,10,12.0,-999.0,100,-99.99,,,-99.99,,2013-04-16 09:43:00,
2013-04-16 04:53:00,41.0,41.0,30.06,NNE,20,10.0,-999.0,100,-99.99,,,-99.99,,2013-04-16 09:53:00,
2013-04-16 05:03:00,41.0,41.0,30.06,NNE,20,10.0,-999.0,100,-99.99,,,-99.99,,2013-04-16 10:03:00,
2013-04-16 05:13:00,41.0,41.0,30.06,NNE,20,10.0,-999.0,100,-99.99,,,-99.99,,2013-04-16 10:13:00,
2013-04-16 05:22:00,39.0,39.0,30.07,North,10,12.0,-999.0,100,-99.99,,,-99.99,,2013-04-16 10:22:00,
2013-04-16 05:33:00,41.0,39.0,30.08,NNE,20,13.0,17.0,93,-99.99,,,-99.99,,2013-04-16 10:33:00,
2013-04-16 05:43:00,39.0,39.0,30.08,NNE,20,12.0,-999.0,100,-99.99,,,-99.99,,2013-04-16 10:43:00,
2013-04-16 05:53:00,39.0,39.0,30.07,NNE,30,13.0,-999.0,100,-99.99,,,-99.99,,2013-04-16 10:53:00,
2013-04-16 06:02:00,39.0,39.0,30.07,NNE,30,13.0,-999.0,100,-99.99,,,-99.99,,2013-04-16 11:02:00,
2013-04-16 06:12:00,39.0,39.0,30.07,NNE,30,13.0,-999.0,100,-99.99,,,-99.99,,2013-04-16 11:12:00,
2013-04-16 06:22:00,39.0,39.0,30.08,NNE,20,12.0,-999.0,100,-99.99,,,-99.99,,2013-04-16 11:22:00,
2013-04-16 06:32:00,39.0,39.0,30.09,NNE,20,10.0,-999.0,100,-99.99,,,-99.99,,2013-04-16 11:32:00,
2013-04-16 06:42:00,39.0,39.0,30.09,NNE,30,12.0,-999.0,100,-99.99,,,-99.99,,2013-04-16 11:42:00,
2013-04-16 06:53:00,39.0,39.0,30.09,NE,40,12.0,-999.0,100,-99.99,,,-99.99,,2013-04-16 11:53:00,
2013-04-16 07:02:00,39.0,39.0,30.09,NE,40,12.0,-999.0,100,-99.99,,,-99.99,,2013-04-16 12:02:00,
2013-04-16 07:12:00,39.0,39.0,30.09,NE,40,12.0,-999.0,100,-99.99,,,-99.99,,2013-04-16 12:12:00,
2013-04-16 07:22:00,39.0,39.0,30.11,NE,40,12.0,-999.0,100,-99.99,,,-99.99,,2013-04-16 12:22:00,
2013-04-16 07:32:00,39.0,39.0,30.12,NNE,20,9.0,-999.0,100,-99.99,,,-99.99,,2013-04-16 12:32:00,
2013-04-16 07:42:00,39.0,39.0,30.13,NE,40,12.0,-999.0,100,-99.99,,,-99.99,,2013-04-16 12:42:00,
2013-04-16 07:52:00,39.0,39.0,30.13,NE,50,10.0,-999.0,100,-99.99,,,-99.99,,2013-04-16 12:52:00,
2013-04-16 08:02:00,39.0,39.0,30.13,NE,50,10.0,-999.0,100,-99.99,,,-99.99,,2013-04-16 13:02:00,
2013-04-16 08:12:00,39.0,39.0,30.13,NE,50,10.0,-999.0,100,-99.99,,,-99.99,,2013-04-16 13:12:00,
2013-04-16 08:22:00,39.0,39.0,30.14,NE,40,7.0,-999.0,100,-99.99,,,-99.99,,2013-04-16 13:22:00,
2013-04-16 08:32:00,39.0,39.0,30.16,North,360,6.0,-999.0,100,-99.99,,,-99.99,,2013-04-16 13:32:00,
2013-04-16 08:42:00,39.0,39.0,30.14,NNE,30,9.0,-999.0,100,-99.99,,,-99.99,,2013-04-16 13:42:00,
2013-04-16 08:52:00,39.0,39.0,30.13,NNE,30,10.0,-999.0,100,-99.99,,,-99.99,,2013-04-16 13:52:00,
2013-04-16 09:02:00,39.0,39.0,30.13,NNE,30,10.0,-999.0,100,-99.99,,,-99.99,,2013-04-16 14:02:00,
2013-04-16 09:12:00,39.0,39.0,30.13,NNE,30,10.0,-999.0,100,-99.99,,,-99.99,,2013-04-16 14:12:00,
2013-04-16 09:22:00,39.0,39.0,30.18,NNE,20,8.0,-999.0,100,-99.99,,,-99.99,,2013-04-16 14:22:00,
2013-04-16 09:32:00,39.0,39.0,30.14,ENE,70,9.0,-999.0,100,-99.99,,,-99.99,,2013-04-16 14:32:00,
2013-04-16 09:42:00,39.0,39.0,30.14,NNE,30,8.0,18.0,100,-99.99,,,-99.99,,2013-04-16 14:42:00,
2013-04-16 09:52:00,39.0,39.0,30.16,North,360,8.0,-999.0,100,-99.99,,,-99.99,,2013-04-16 14:52:00,
2013-04-16 10:02:00,39.0,39.0,30.16,North,360,8.0,-999.0,100,-99.99,,,-99.99,,2013-04-16 15:02:00,
2013-04-16 10:12:00,39.0,39.0,30.16,North,360,8.0,-999.0,100,-99.99,,,-99.99,,2013-04-16 15:12:00,
2013-04-16 10:22:00,39.0,39.0,30.15,North,10,9.0,-999.0,100,-99.99,,,-99.99,,2013-04-16 15:22:00,
2013-04-16 10:33:00,39.0,39.0,30.15,North,10,10.0,-999.0,100,-99.99,,,-99.99,,2013-04-16 15:33:00,
2013-04-16 10:43:00,41.0,41.0,30.14,NNE,20,10.0,-999.0,100,-99.99,,,-99.99,,2013-04-16 15:43:00,
2013-04-16 10:53:00,41.0,41.0,30.13,North,10,13.0,17.0,100,-99.99,,,-99.99,,2013-04-16 15:53:00,
2013-04-16 11:03:00,41.0,41.0,30.13,North,10,13.0,17.0,100,-99.99,,,-99.99,,2013-04-16 16:03:00,
2013-04-16 11:13:00,41.0,41.0,30.13,North,10,13.0,17.0,100,-99.99,,,-99.99,,2013-04-16 16:13:00,
2013-04-16 11:23:00,41.0,41.0,30.15,NNE,20,9.0,-999.0,100,-99.99,,,-99.99,,2013-04-16 16:23:00,
2013-04-16 11:32:00,41.0,41.0,30.15,NNE,20,9.0,-999.0,100,-99.99,,,-99.99,,2013-04-16 16:32:00,
2013-04-16 11:42:00,43.0,43.0,30.15,NNE,30,14.0,-999.0,100,-99.99,,,-99.99,,2013-04-16 16:42:00,
2013-04-16 11:53:00,43.0,41.0,30.15,NE,40,13.0,-999.0,93,-99.99,,,-99.99,,2013-04-16 16:53:00,
2013-04-16 12:02:00,43.0,41.0,30.15,NE,40,13.0,-999.0,93,-99.99,,,-99.99,,2013-04-16 17:02:00,
2013-04-16 12:12:00,43.0,41.0,30.15,NE,40,13.0,-999.0,93,-99.99,,,-99.99,,2013-04-16 17:12:00,
2013-04-16 12:22:00,41.0,41.0,30.15,NNE,30,10.0,-999.0,100,-99.99,,,-99.99,,2013-04-16 17:22:00,
2013-04-16 12:32:00,41.0,41.0,30.17,NNE,30,10.0,-999.0,100,-99.99,,,-99.99,,2013-04-16 17:32:00,
2013-04-16 12:43:00,41.0,41.0,30.15,NNE,20,9.0,-999.0,100,-99.99,,,-99.99,,2013-04-16 17:43:00,
2013-04-16 12:53:00,41.0,41.0,30.15,NNE,20,12.0,-999.0,100,-99.99,,,-99.99,,2013-04-16 17:53:00,
2013-04-16 13:02:00,41.0,41.0,30.15,NNE,20,12.0,-999.0,100,-99.99,,,-99.99,,2013-04-16 18:02:00,
2013-04-16 13:12:00,41.0,41.0,30.15,NNE,20,12.0,-999.0,100,-99.99,,,-99.99,,2013-04-16 18:12:00,
2013-04-16 13:22:00,41.0,41.0,30.15,NNE,20,12.0,-999.0,100,-99.99,,,-99.99,,2013-04-16 18:22:00,
2013-04-16 13:32:00,41.0,41.0,30.15,NNE,20,12.0,-999.0,100,-99.99,,,-99.99,,2013-04-16 18:32:00,
2013-04-16 13:43:00,43.0,43.0,30.15,NE,40,12.0,-999.0,100,-99.99,,,-99.99,,2013-04-16 18:43:00,
2013-04-16 13:52:00,43.0,43.0,30.15,North,10,12.0,-999.0,100,-99.99,,,-99.99,,2013-04-16 18:52:00,
2013-04-16 14:02:00,43.0,43.0,30.15,North,10,12.0,-999.0,100,-99.99,,,-99.99,,2013-04-16 19:02:00,
2013-04-16 14:12:00,43.0,43.0,30.15,North,10,12.0,-999.0,100,-99.99,,,-99.99,,2013-04-16 19:12:00,
2013-04-16 14:22:00,43.0,43.0,30.14,NNE,30,10.0,16.0,100,-99.99,,,-99.99,,2013-04-16 19:22:00,
2013-04-16 14:32:00,43.0,43.0,30.15,North,10,10.0,-999.0,100,-99.99,,,-99.99,,2013-04-16 19:32:00,
2013-04-16 14:42:00,43.0,41.0,30.15,NNE,20,13.0,-999.0,93,-99.99,,,-99.99,,2013-04-16 19:42:00,
2013-04-16 14:52:00,43.0,43.0,30.14,NNE,30,8.0,-999.0,100,-99.99,,,-99.99,,2013-04-16 19:52:00,
2013-04-16 15:02:00,43.0,43.0,30.14,NNE,30,8.0,-999.0,100,-99.99,,,-99.99,,2013-04-16 20:02:00,
2013-04-16 15:12:00,43.0,43.0,30.14,NNE,30,8.0,-999.0,100,-99.99,,,-99.99,,2013-04-16 20:12:00,
2013-04-16 15:22:00,43.0,41.0,30.14,NE,40,13.0,-999.0,93,-99.99,,,-99.99,,2013-04-16 20:22:00,
2013-04-16 15:32:00,43.0,41.0,30.13,NNE,30,12.0,-999.0,93,-99.99,,,-99.99,,2013-04-16 20:32:00,
2013-04-16 15:42:00,43.0,41.0,30.13,NE,40,10.0,-999.0,93,-99.99,,,-99.99,,2013-04-16 20:42:00,
2013-04-16 15:52:00,43.0,39.0,30.14,NNE,30,12.0,-999.0,86,-99.99,,,-99.99,,2013-04-16 20:52:00,
2013-04-16 16:02:00,43.0,39.0,30.14,NNE,30,12.0,-999.0,86,-99.99,,,-99.99,,2013-04-16 21:02:00,
2013-04-16 16:12:00,43.0,39.0,30.14,NNE,30,12.0,-999.0,86,-99.99,,,-99.99,,2013-04-16 21:12:00,
2013-04-16 16:22:00,45.0,41.0,30.12,NE,50,12.0,-999.0,87,-99.99,,,-99.99,,2013-04-16 21:22:00,
2013-04-16 16:32:00,45.0,39.0,30.13,NE,40,14.0,-999.0,81,-99.99,,,-99.99,,2013-04-16 21:32:00,
2013-04-16 16:43:00,45.0,41.0,30.13,NE,40,14.0,-999.0,87,-99.99,,,-99.99,,2013-04-16 21:43:00,
2013-04-16 16:53:00,45.0,39.0,30.14,NE,50,12.0,-999.0,81,-99.99,,,-99.99,,2013-04-16 21:53:00,
2013-04-16 17:02:00,45.0,39.0,30.14,NE,50,12.0,-999.0,81,-99.99,,,-99.99,,2013-04-16 22:02:00,
2013-04-16 17:13:00,45.0,39.0,30.14,NE,50,12.0,-999.0,81,-99.99,,,-99.99,,2013-04-16 22:13:00,
2013-04-16 17:22:00,45.0,39.0,30.14,NE,40,10.0,-999.0,81,-99.99,,,-99.99,,2013-04-16 22:22:00,
2013-04-16 17:33:00,45.0,39.0,30.14,NNE,30,10.0,-999.0,81,-99.99,,,-99.99,,2013-04-16 22:33:00,
2013-04-16 17:43:00,45.0,41.0,30.14,NE,40,8.0,-999.0,87,-99.99,,,-99.99,,2013-04-16 22:43:00,
2013-04-16 17:52:00,45.0,41.0,30.14,NE,50,9.0,-999.0,87,-99.99,,,-99.99,,2013-04-16 22:52:00,
2013-04-16 18:02:00,45.0,41.0,30.14,NE,50,9.0,-999.0,87,-99.99,,,-99.99,,2013-04-16 23:02:00,
2013-04-16 18:12:00,45.0,41.0,30.14,NE,50,9.0,-999.0,87,-99.99,,,-99.99,,2013-04-16 23:12:00,
2013-04-16 18:22:00,45.0,39.0,30.14,NE,50,10.0,-999.0,81,-99.99,,,-99.99,,2013-04-16 23:22:00,
2013-04-16 18:32:00,45.0,39.0,30.15,NE,50,12.0,-999.0,81,-99.99,,,-99.99,,2013-04-16 23:32:00,
2013-04-16 18:43:00,45.0,39.0,30.15,NE,50,8.0,-999.0,81,-99.99,,,-99.99,,2013-04-16 23:43:00,
2013-04-16 18:52:00,45.0,41.0,30.14,ENE,60,7.0,-999.0,87,-99.99,,,-99.99,,2013-04-16 23:52:00,
2013-04-16 19:02:00,45.0,41.0,30.14,ENE,60,7.0,-999.0,87,-99.99,,,-99.99,,2013-04-17 00:02:00,
2013-04-16 19:12:00,45.0,41.0,30.14,ENE,60,7.0,-999.0,87,-99.99,,,-99.99,,2013-04-17 00:12:00,
2013-04-16 19:22:00,45.0,41.0,30.14,NE,50,8.0,-999.0,87,-99.99,,,-99.99,,2013-04-17 00:22:00,
2013-04-16 19:32:00,45.0,41.0,30.14,NE,50,8.0,-999.0,87,-99.99,,,-99.99,,2013-04-17 00:32:00,
2013-04-16 19:42:00,45.0,41.0,30.14,NE,50,7.0,-999.0,87,-99.99,,,-99.99,,2013-04-17 00:42:00,
2013-04-16 19:52:00,45.0,41.0,30.14,NE,50,7.0,-999.0,87,-99.99,,,-99.99,,2013-04-17 00:52:00,
2013-04-16 20:02:00,45.0,41.0,30.14,NE,50,7.0,-999.0,87,-99.99,,,-99.99,,2013-04-17 01:02:00,
2013-04-16 20:12:00,45.0,41.0,30.14,NE,50,7.0,-999.0,87,-99.99,,,-99.99,,2013-04-17 01:12:00,
2013-04-16 20:22:00,45.0,41.0,30.14,ENE,70,8.0,-999.0,87,-99.99,,,-99.99,,2013-04-17 01:22:00,
2013-04-16 20:32:00,45.0,41.0,30.14,East,80,8.0,-999.0,87,-99.99,,,-99.99,,2013-04-17 01:32:00,
2013-04-16 20:42:00,45.0,41.0,30.14,ENE,70,7.0,-999.0,87,-99.99,,,-99.99,,2013-04-17 01:42:00,
2013-04-16 20:52:00,45.0,41.0,30.15,ENE,60,7.0,-999.0,87,-99.99,,,-99.99,,2013-04-17 01:52:00,
2013-04-16 21:02:00,45.0,41.0,30.15,ENE,60,7.0,-999.0,87,-99.99,,,-99.99,,2013-04-17 02:02:00,
2013-04-16 21:12:00,45.0,41.0,30.15,ENE,60,7.0,-999.0,87,-99.99,,,-99.99,,2013-04-17 02:12:00,
2013-04-16 21:22:00,45.0,43.0,30.15,ENE,70,5.0,-999.0,93,-99.99,,,-99.99,,2013-04-17 02:22:00,
2013-04-16 21:32:00,45.0,43.0,30.15,ENE,70,5.0,-999.0,93,-99.99,,,-99.99,,2013-04-17 02:32:00,
2013-04-16 21:42:00,45.0,43.0,30.15,East,80,5.0,-999.0,93,-99.99,,,-99.99,,2013-04-17 02:42:00,
2013-04-16 21:52:00,45.0,43.0,30.15,East,80,6.0,-999.0,93,-99.99,,,-99.99,,2013-04-17 02:52:00,
2013-04-16 22:02:00,45.0,43.0,30.15,East,80,6.0,-999.0,93,-99.99,,,-99.99,,2013-04-17 03:02:00,
2013-04-16 22:12:00,45.0,43.0,30.15,East,80,6.0,-999.0,93,-99.99,,,-99.99,,2013-04-17 03:12:00,
2013-04-16 22:22:00,45.0,43.0,30.15,East,80,7.0,-999.0,93,-99.99,,,-99.99,,2013-04-17 03:22:00,
2013-04-16 22:33:00,45.0,43.0,30.15,East,80,6.0,-999.0,93,-99.99,,,-99.99,,2013-04-17 03:33:00,
2013-04-16 22:42:00,45.0,43.0,30.15,ENE,70,7.0,-999.0,93,-99.99,,,-99.99,,2013-04-17 03:42:00,
2013-04-16 22:53:00,45.0,43.0,30.14,East,80,7.0,-999.0,93,-99.99,,,-99.99,,2013-04-17 03:53:00,
2013-04-16 23:03:00,45.0,43.0,30.14,East,80,7.0,-999.0,93,-99.99,,,-99.99,,2013-04-17 04:03:00,
2013-04-16 23:13:00,45.0,43.0,30.14,East,80,7.0,-999.0,93,-99.99,,,-99.99,,2013-04-17 04:13:00,
2013-04-16 23:22:00,45.0,43.0,30.14,ENE,60,7.0,-999.0,93,-99.99,,,-99.99,,2013-04-17 04:22:00,
2013-04-16 23:33:00,45.0,43.0,30.15,East,80,7.0,-999.0,93,-99.99,,,-99.99,,2013-04-17 04:33:00,
2013-04-16 23:42:00,45.0,43.0,30.14,ENE,70,8.0,-999.0,93,-99.99,,,-99.99,,2013-04-17 04:42:00,
2013-04-16 23:52:00,46.0,43.0,30.15,ENE,70,6.0,-999.0,87,-99.99,,,-99.99,,2013-04-17 04:52:00,